7 * 24
多渠道服务支持
STARLINK-33691是美国太空探索技术公司SpaceX星链(Starlink)卫星互联网星座中的一员,于2025年4月6日发射升空。星链计划旨在通过部署数千颗低轨卫星,为全球偏远地区、海上和空中等场景提供低延迟、高速的宽带互联网接入服务。作为该星座的新成员,STARLINK-33691将和其他星链卫星协同工作,进一步扩展全球卫星互联网的覆盖范围与服务能力,推动空天地一体化网络建设,同时也引发了关于天文观测干扰和空间碎片治理的讨论。
美国
(US)
| 数据来源 | 国际轨道数据 |
| 星历时间: | 2026-06-13T09:03:14+0800 1天前 查看轨道信息 |
| 半长轴: | 6861.111km |
| 偏心率: | 0.0002345 |
| 轨道倾角: | 43.003° |
| 近地点辐角 | 275.826° |
| 升交点赤经 | 80.946° |
| 平近点角 | 84.233° |
| 近地点: | 481.365km |
| 远地点: | 484.583km |
| 周期: | 94.265分钟 |
| 每日圈数: | 15.276053 |